CZ-6A DEB, 61801

Orbit data source: Space-Track

CZ-6A DEB, 61801 is space debris in LEO originally from a launch on Tue, 06 Aug 2024 UTC launched from the Taiyaun Space Center, China (TSC). Debris objects in space refer to the collection of defunct objects orbiting the Earth. Examples of debris include non-operational satellites, rocket bodies, and fragments generated from explosions, collisions, or faulty payload assembly.

Loading next visibility...
Identifier
61801, 2024-140ABR
Orbit
LEO
Country
Flag of CNCN / PRC
Related business
Manufacturer
SAST
Mission
Spacecraft
Bus & Motor
Unknown
Mass
Unknown
Launch date (UTC)
2024-08-06 (2 years ago)
Launch vehicle
Unknown
Launch site
Taiyaun Space Center, China (TSC)
Object type
Payload
Rocket body
Debris
Shape & HBR
Unknown shape, 0.1 m
Radar Cross Section
Medium (>0.1 m² and <1 m²)

Expand to show TLE details & history
Last TLE update: 17 hours ago

TLE from 17 hours ago
0 CZ-6A DEB
1 61801U 24140ABR 26171.12093012  .00003151  00000-0  85041-3 0  9993
2 61801  88.4461 226.2362 0121600  14.5114 345.9528 14.43310987 94175
Epoch: 2026-06-20T02:54Z
TLE epoch observation values (Epoch: 2026-06-20T02:54:08.362Z)
Latitude
-0.00008°
Longitude
-85.63875°
Altitude
666.651 km
Speed
7.568 km/s
True Right ascension
15h 04m 56s
True Declination
0° 00' 00"
Sunlit
Object was in full shadow at epoch
Visualization orbit readout
Latitude
Unknown
Longitude
Unknown
Altitude
Unknown
Speed
Unknown
Apparent Right ascension
Unknown
Apparent Declination
Unknown
Sunlit
N/A
Visualization observer readout
Local Sidereal Time
07:19:06
Azimuth
Unknown
Elevation
Unknown
Doppler factor
Unknown
Orbital elements
Apogee altitude
831.112 km
Perigee altitude
657.89 km
Semi-major axis
7,122.638 km
Eccentricity
0.01216
Inclination
88.4461°
RAAN
226.2362°
Arg. of periapsis
14.5114°
True anomaly
345.60953°
Mean anomaly
345.9528°
Eccentric anomaly
345.78167°
Mean motion
3.61062 °/min
Orbital period
99.71 mins
BSTAR
0.00085041
Loading maneuver chart data...
Computing Atmospheric mass density...
Loading historical data...
Loading historical data...
Loading historical data...
Loading historical data...
Loading historical data...
Loading historical data...
Loading historical data...

Documentation

Showing up to 5 results
|